Weather History for KNEW - August, 2012

Change the Weather History Date:

Wednesday, August 29, 2012

  Actual Average Record
Temperature  
Mean Temperature 78 °F 83 °F  
Max Temperature 79 °F 91 °F 97 °F (2011)
Min Temperature 77 °F 75 °F 63 °F (1992)
Degree Days  
Heating Degree Days 0 0  
Month to date heating degree days 0 0  
Since 1 June heating degree days 0 0  
Since 1 July heating degree days 0 0  
Cooling Degree Days 13 18  
Month to date cooling degree days 513 522  
Year to date cooling degree days 2636 2202  
Since 1 June cooling degree days 1620 1583  
Growing Degree Days 28 (Base 50)    
Moisture  
Dew Point 76 °F    
Average Humidity 94    
Maximum Humidity 97    
Minimum Humidity 91    
Precipitation  
Precipitation 7.86 in 0.19 in 7.86 in (2012)
Month to date precipitation 17.38 5.58  
Year to date precipitation 55.99 43.81  
Snow  
Snow 0.00 in - - ()
Month to date snowfall 0.0  
Since 1 June snowfall 0.0  
Since 1 July snowfall 0.0  
Snow Depth 0.00 in    
Sea Level Pressure  
Sea Level Pressure 29.21 in    
Wind  
Wind Speed 35 mph (East)    
Max Wind Speed 52 mph    
Max Gust Speed 75 mph    
Visibility 1 miles    
Events Fog , Rain    
T = Trace of Precipitation, MM = Missing Value Source: NWS Daily Summary

Daily Weather History Graph

Daily Weather History Graph

Search for Another Location

Airport or City:

Trip Planner

Search our weather history database for the weather conditions in past years. The results will help you decide how hot, cold, wet, or windy it might be!

Date:

Astronomy

Aug. 29, 2012 Rise Set
Actual Time 6:35 AM CDT 7:25 PM CDT
Civil Twilight 6:11 AM CDT 7:49 PM CDT
Nautical Twilight 5:42 AM CDT 8:18 PM CDT
Astronomical Twilight 5:12 AM CDT 8:48 PM CDT
Moon 6:03 PM CDT (8/29) 4:36 AM CDT (8/29)
Length of Visible Light 13h 38m
Length of Day
12h 49m
Waxing Gibbous, 96% of the Moon is Illuminated
Aug 29
Waxing Gibbous
Aug 31
Full
Sep 8
Last Quarter
Sep 15
New
Sep 22
First Quarter

Hourly Weather History & Observations

Time (CDT) Temp. Heat Index Dew Point Humidity Pressure Visibility Wind Dir Wind Speed Gust Speed Precip Events Conditions
12:10 AM 75.2 °F - - N/A% 29.32 in 0.8 mi ENE 57.5 mph 76.0 mph 0.09 in   Overcast
12:19 AM - - - N/A% 29.33 in 1.2 mi ENE 52.9 mph 71.3 mph 0.12 in   Unknown
12:30 AM - - - N/A% 29.32 in 0.8 mi ENE 44.9 mph 64.4 mph 0.20 in   Unknown
12:53 AM - - - N/A% 29.29 in 0.8 mi ENE 52.9 mph 65.6 mph 0.41 in   Unknown
12:58 AM - - - N/A% 29.30 in 1.0 mi ENE 51.8 mph 69.0 mph 0.02 in   Unknown
1:14 AM - - - N/A% 29.28 in 0.5 mi ENE 56.4 mph 71.3 mph 0.18 in   Unknown
1:42 AM 80.6 °F 87.1 °F 77.0 °F 89% 29.27 in 0.5 mi ENE 51.8 mph 70.2 mph 0.46 in Fog Unknown
1:44 AM 80.6 °F 87.1 °F 77.0 °F 89% 29.27 in 0.5 mi ENE 51.8 mph 70.2 mph 0.48 in Fog Unknown
1:53 AM 78.1 °F - 77.0 °F 96% 29.26 in 0.5 mi ENE 54.1 mph 69.0 mph 0.56 in Fog Fog
2:07 AM 80.6 °F 87.1 °F 77.0 °F 89% 29.26 in 0.5 mi ENE 55.2 mph 69.0 mph 0.22 in Fog , Rain Heavy Rain
2:14 AM 80.6 °F 87.1 °F 77.0 °F 89% 29.25 in 0.5 mi ENE 51.8 mph 69.0 mph 0.29 in Fog , Rain Heavy Rain
2:29 AM 80.6 °F 87.1 °F 77.0 °F 89% 29.25 in 0.2 mi East 54.1 mph 66.7 mph 0.61 in Fog , Rain Heavy Rain
2:39 AM 80.6 °F 87.1 °F 77.0 °F 89% 29.24 in 0.5 mi East 54.1 mph 65.6 mph 0.77 in Fog , Rain Heavy Rain
2:50 AM 78.8 °F - 77.0 °F 94% 29.23 in 0.2 mi East 52.9 mph 64.4 mph 1.09 in Fog , Rain Heavy Rain
2:53 AM 80.1 °F 85.8 °F 77.0 °F 90% 29.22 in 0.2 mi East 47.2 mph 69.0 mph 1.16 in Fog , Rain Heavy Rain
3:01 AM 80.6 °F 87.1 °F 77.0 °F 89% 29.24 in 0.5 mi East 49.5 mph 70.2 mph 0.09 in Fog , Rain Light Rain
3:22 AM - - - N/A% 29.21 in 0.5 mi East 50.6 mph 65.6 mph 0.45 in Rain Heavy Rain
3:32 AM - - - N/A% 29.20 in 0.5 mi East 49.5 mph 64.4 mph N/A   Unknown
3:53 AM 80.1 °F 85.8 °F 77.0 °F 90% 29.18 in 0.5 mi East 51.8 mph 73.6 mph 0.81 in Fog Unknown
3:56 AM 80.6 °F 86.2 °F 75.2 °F 84% 29.19 in 0.5 mi East 47.2 mph 72.5 mph 0.02 in Fog Unknown
4:04 AM 80.6 °F 87.1 °F 77.0 °F 89% 29.18 in 0.5 mi East 52.9 mph 67.9 mph 0.11 in Fog Fog
4:39 AM 80.6 °F 87.1 °F 77.0 °F 89% 29.15 in 0.5 mi East 49.5 mph 67.9 mph 0.56 in Fog Fog
5:08 AM 80.6 °F 86.2 °F 75.2 °F 84% 29.15 in 0.5 mi East 50.6 mph 72.5 mph 1.05 in Fog , Rain Heavy Rain
5:29 AM 80.6 °F 86.2 °F 75.2 °F 84% 29.14 in 0.8 mi East 54.1 mph 70.2 mph 1.21 in   Overcast
5:49 AM 80.6 °F 86.2 °F 75.2 °F 84% 29.13 in 0.8 mi East 48.3 mph 72.5 mph 1.35 in Rain Light Rain
5:53 AM 80.1 °F 85.4 °F 75.9 °F 87% 29.12 in 0.8 mi East 55.2 mph 70.2 mph 1.36 in   Overcast
6:10 AM 80.6 °F 87.1 °F 77.0 °F 89% 29.13 in 1.0 mi East 49.5 mph 64.4 mph 0.07 in   Overcast
6:25 AM - - - N/A% 29.13 in 0.8 mi East 52.9 mph 71.3 mph 0.10 in   Unknown
6:37 AM - - - N/A% 29.13 in 1.0 mi East 48.3 mph 66.7 mph 0.14 in   Unknown
6:49 AM 80.6 °F 86.2 °F 75.2 °F 84% 29.13 in 0.8 mi East 49.5 mph 73.6 mph 0.18 in   Overcast
6:53 AM 80.1 °F 85.4 °F 75.9 °F 87% 29.12 in 1.0 mi East 50.6 mph 64.4 mph 0.20 in   Overcast
7:09 AM 78.8 °F - 75.2 °F 89% 29.14 in 1.0 mi East 50.6 mph 67.9 mph 0.05 in Rain Rain
7:16 AM 80.6 °F 86.2 °F 75.2 °F 84% 29.14 in 0.8 mi East 51.8 mph 67.9 mph 0.10 in Rain Heavy Rain
7:29 AM 80.6 °F 86.2 °F 75.2 °F 84% 29.15 in 1.0 mi East 46.0 mph 63.3 mph 0.14 in Rain Rain
7:33 AM 80.6 °F 86.2 °F 75.2 °F 84% 29.15 in - North - - 0.14 in   Unknown
7:53 AM - - - N/A% 29.13 in - North - - 0.14 in   Unknown
8:53 AM - - - N/A% 29.13 in - North - - N/A   Unknown
9:53 AM - - - N/A% 29.12 in - North - - N/A   Unknown
10:53 AM - - - N/A% 29.15 in - North - - N/A   Unknown
9:41 PM 78.8 °F - 75.2 °F 89% 29.31 in 1.0 mi SSE 35.7 mph 50.6 mph N/A   Overcast
9:53 PM 78.8 °F - 75.2 °F 89% 29.32 in 1.5 mi SSE 38.0 mph 55.2 mph N/A   Overcast
10:11 PM 80.6 °F 86.2 °F 75.2 °F 84% 29.33 in 0.8 mi South 43.7 mph 55.2 mph N/A   Haze
10:20 PM 80.6 °F 86.2 °F 75.2 °F 84% 29.34 in 1.0 mi South 38.0 mph 55.2 mph N/A   Haze